This demonstration page uses our WeatherBlox Daily Observations layout. Learn more.

Left ArrowRight Arrow

Hourly Observations for April 11, 2019

Temp ( °F °C ) Dew Point ( °F °C ) Humidity (%) Winds ( mph kmh ) Pressure ( in mb ) Visibility ( mi km ) Precip ( " mm )
12:22 am 00:22 Cloudy 42 5.6 37 2.8 82 82 ENE 21 33 29.45 997 7 11 0.00 0.03
12:52 am 00:52 Cloudy 43 6.1 37 2.8 80 80 ENE 12 19 29.41 996 7 11 0.00 0.03
1:12 am 01:12 Cloudy 43 6.1 36 2.2 76 76 ENE 20 31 29.45 997 7 11 0.00 0.00
1:52 am 01:52 Cloudy 42 5.6 36 2.2 79 79 ENE 16 26 29.40 996 7 11 0.00 0.00
2:52 am 02:52 Cloudy 42 5.6 36 2.2 79 79 ENE 16 26 29.34 994 10 16 0.00 0.00
3:52 am 03:52 Cloudy 43 6.1 36 2.2 76 76 E 12 19 29.31 992 10 16 0.00 0.00
4:52 am 04:52 Cloudy 43 6.1 37 2.8 80 80 undefined N/A 29.27 991 10 16 0.00 0.00
5:52 am 05:52 Cloudy 44 6.7 37 2.8 76 76 E 12 19 29.23 990 10 16 0.00 0.00
6:52 am 06:52 Cloudy 45 7.2 38 3.3 77 77 VRB 7 11 29.21 989 10 16 0.00 0.00
7:52 am 07:52 Cloudy 46 7.8 39 3.9 77 77 E 14 22 29.21 989 8 13 0.00 0.00
8:52 am 08:52 Cloudy 47 8.3 40 4.4 77 77 ESE 9 15 29.20 989 8 13 0.00 0.00
9:52 am 09:52 Cloudy 52 11.1 45 7.2 77 77 SSE 16 26 29.18 988 9 14 0.00 0.00
10:10 am 10:10 Cloudy 52 11.1 43 6.1 72 72 S 24 39 29.19 988 9 14 0.00 0.00
10:52 am 10:52 Cloudy 50 10 41 5 71 71 S 23 37 29.20 989 9 14 0.00 0.00
11:52 am 11:52 Cloudy 47 8.3 37 2.8 69 69 SSW 23 37 29.23 990 10 16 0.00 0.00
12:26 pm 12:26 Cloudy 48 8.9 35 1.7 61 61 S 17 28 29.25 990 10 16 0.00 0.00
12:52 pm 12:52 Cloudy 47 8.3 34 1.1 61 61 SSW 22 35 29.24 990 10 16 0.00 0.00
1:52 pm 13:52 Cloudy 46 7.8 33 0.6 61 61 SSW 22 35 29.26 991 10 16 0.00 0.00
2:11 pm 14:11 Cloudy 46 7.8 32 0 58 58 SW 24 39 29.29 992 10 16 0.00 0.00
2:52 pm 14:52 Cloudy with Light Rain 44 6.7 34 1.1 68 68 SSW 24 39 29.29 992 8 13 0.00 0.03
3:41 pm 15:41 Cloudy 45 7.2 31 -0.6 58 58 SW 23 37 29.32 993 10 16 0.00 0.03
3:52 pm 15:52 Cloudy 44 6.7 30 -1.1 58 58 SSW 22 35 29.31 993 10 16 0.00 0.03
4:52 pm 16:52 Cloudy 43 6.1 30 -1.1 60 60 SW 22 35 29.35 994 10 16 0.00 0.00
5:46 pm 17:46 Cloudy 39 4 28 -2 65 65 SW 18 30 29.41 996 10 16 0.00 0.00
5:52 pm 17:52 Cloudy 39 3.9 28 -2.2 65 65 SW 23 37 29.40 996 10 16 0.00 0.00
6:52 pm 18:52 Cloudy 38 3.3 27 -2.8 65 65 WSW 21 33 29.42 996 10 16 0.00 0.00
7:52 pm 19:52 Cloudy 37 2.8 26 -3.3 65 65 SW 23 37 29.44 997 10 16 0.00 0.00
8:52 pm 20:52 Windy with Snow Likely 37 2.8 25 -3.9 62 62 WSW 22 35 29.47 998 10 16 0.00 0.03
9:52 pm 21:52 Windy with Snow Likely 36 2.2 24 -4.4 62 62 WSW 22 35 29.48 998 10 16 0.00 0.03
10:52 pm 22:52 Cloudy with Light Snow 36 2.2 24 -4.4 62 62 WSW 17 28 29.49 999 10 16 0.00 0.03
11:52 pm 23:52 Windy with Snow Likely 35 1.7 23 -5 61 61 WSW 20 31 29.49 999 10 16 0.00 0.03

Powered by AerisWeather